CW8014 Weather Reports


Display with metric or nautical units.
time (UTC)temp
F
wind
direction
speed
MPH
gust
MPH
rain 1hr
in
rain 24hr
in
rain mn
in
humidity
%
barometer
mb
20260903130403 73 268 7.0 15.0 0.00 0.01 0.01 76 1014.1
20260903125403 73 258 7.0 15.0 0.00 0.06 0.01 77 1014.1
20260903124404 72 226 8.0 19.0 0.00 0.06 0.01 78 1013.9
20260903123403 72 297 9.0 19.0 0.00 0.06 0.01 78 1013.9
20260903122403 71 246 6.0 15.0 0.00 0.06 0.01 80 1013.9
20260903121403 71 239 8.0 14.0 0.00 0.06 0.01 80 1013.8
20260903120404 71 261 6.0 13.0 0.00 0.06 0.01 82 1013.8
20260903115405 71 248 8.0 19.0 0.00 0.06 0.01 82 1013.8
20260903114403 71 234 5.0 13.0 0.00 0.06 0.01 84 1013.7
20260903113403 71 264 7.0 14.0 0.01 0.06 0.01 85 1013.5
20260903112404 70 183 5.0 15.0 0.01 0.06 0.01 86 1013.3
20260903111404 70 229 6.0 17.0 0.01 0.06 0.01 88 1013.6
20260903103403 68 244 4.0 11.0 0.00 0.06 0.00 90 1014.0
20260903102403 69 218 6.0 13.0 0.00 0.06 0.00 89 1014.1
20260903101405 68 197 6.0 11.0 0.00 0.06 0.00 90 1013.9
20260903100403 67 185 4.0 11.0 0.00 0.06 0.00 92 1013.9
20260903095404 66 265 4.0 11.0 0.00 0.06 0.00 92 1014.0
20260903094405 66 193 5.0 12.0 0.00 0.06 0.00 92 1014.0
20260903093404 66 23 4.0 9.0 0.00 0.06 0.00 91 1014.1
20260903091404 66 186 4.0 9.0 0.00 0.06 0.00 91 1013.9
20260903084404 65 178 3.0 9.0 0.00 0.06 0.00 92 1014.1
20260903083404 65 201 4.0 11.0 0.00 0.06 0.00 91 1014.2
20260903081404 65 238 4.0 12.0 0.00 0.06 0.00 88 1014.1
20260903075405 65 144 3.0 13.0 0.00 0.06 0.00 88 1014.0
20260903074404 65 168 5.0 16.0 0.00 0.06 0.00 88 1014.0
20260903073404 65 111 5.0 14.0 0.00 0.06 0.00 88 1014.0
20260903072405 65 184 6.0 18.0 0.00 0.06 0.00 88 1013.9
20260903071404 64 284 5.0 13.0 0.00 0.06 0.00 88 1014.0
20260903065404 64 143 5.0 12.0 0.00 0.06 0.00 88 1014.0
20260903064405 64 174 4.0 14.0 0.00 0.06 0.00 88 1013.8
20260903063404 64 146 5.0 9.0 0.00 0.06 0.00 88 1013.9
20260903062404 64 190 4.0 11.0 0.00 0.06 0.00 87 1014.2
20260903061404 64 230 5.0 15.0 0.00 0.06 0.00 86 1014.3
20260903055404 64 185 5.0 14.0 0.00 0.06 0.00 85 1014.3
20260903054404 64 202 5.0 10.0 0.00 0.06 0.00 85 1014.5
20260903053404 64 242 4.0 8.0 0.00 0.06 0.00 84 1014.5
20260903052404 64 202 5.0 12.0 0.00 0.06 0.00 84 1014.2
20260903051404 64 206 5.0 10.0 0.00 0.06 0.00 84 1014.2
20260903050405 64 197 4.0 11.0 0.00 0.06 0.00 84 1014.5
20260903044404 64 153 5.0 11.0 0.00 0.06 0.00 84 1014.4
20260903043404 64 162 5.0 16.0 0.00 0.06 0.00 84 1014.6
20260903042404 64 185 6.0 15.0 0.00 0.06 0.00 83 1014.5
20260903040404 64 222 6.0 13.0 0.00 0.06 0.00 84 1014.8
20260903035409 64 213 6.0 14.0 0.00 0.06 0.00 84 1015.0
20260903033409 63 194 5.0 14.0 0.00 0.06 0.00 85 1015.0
20260903032409 63 133 4.0 8.0 0.00 0.06 0.00 86 1015.2
20260903031410 62 171 5.0 15.0 0.00 0.06 0.00 87 1015.3
20260903030409 62 180 5.0 9.0 0.00 0.06 0.00 88 1015.2
20260903025409 62 166 5.0 13.0 0.00 0.06 0.00 90 1015.3
20260903024409 62 169 4.0 9.0 0.00 0.06 0.00 91 1015.4
20260903023409 61 167 4.0 10.0 0.00 0.06 0.00 92 1015.6
20260903021410 61 165 5.0 10.0 0.00 0.06 0.00 93 1015.8
20260903020409 61 157 5.0 9.0 0.00 0.06 0.00 93 1016.1
20260903015409 61 150 4.0 9.0 0.00 0.06 0.00 93 1016.2
20260903014409 61 180 4.0 9.0 0.00 0.06 0.00 93 1016.3
20260903013409 61 165 4.0 9.0 0.00 0.06 0.00 93 1016.4
20260903011409 61 165 4.0 9.0 0.00 0.06 0.00 92 1016.8
20260903010409 61 158 4.0 8.0 0.00 0.06 0.00 92 1016.9
20260903005409 61 150 4.0 9.0 0.00 0.06 0.00 92 1017.0
20260903004409 61 189 3.0 8.0 0.00 0.06 0.00 91 1017.1
20260903003410 62 173 4.0 8.0 0.00 0.06 0.00 90 1017.3
20260903002409 62 178 4.0 11.0 0.00 0.06 0.00 88 1017.5
20260903001409 63 173 3.0 9.0 0.00 0.06 0.00 85 1017.6
20260903000410 63 215 2.0 6.0 0.00 0.06 0.00 84 1017.6
20260902235409 63 275 4.0 11.0 0.00 0.06 0.00 83 1017.7
20260902233409 63 169 3.0 9.0 0.00 0.06 0.00 85 1017.8
20260902232409 63 152 5.0 17.0 0.00 0.06 0.00 86 1017.9
20260902231410 63 221 3.0 7.0 0.00 0.06 0.00 87 1018.0
20260902225409 63 177 2.0 6.0 0.00 0.06 0.00 87 1018.2
20260902224409 63 190 3.0 6.0 0.00 0.06 0.00 86 1018.3
20260902223409 63 188 2.0 4.0 0.00 0.06 0.00 86 1018.4
20260902222409 63 169 2.0 5.0 0.00 0.06 0.00 87 1018.4
20260902221409 63 183 3.0 9.0 0.00 0.06 0.00 87 1018.5
20260902220409 63 175 3.0 6.0 0.00 0.06 0.00 87 1018.5
20260902215409 63 163 3.0 6.0 0.00 0.06 0.06 87 1018.6
20260902214409 63 165 2.0 5.0 0.00 0.06 0.06 87 1018.6
20260902213410 63 196 2.0 5.0 0.00 0.06 0.06 88 1018.5
20260902212409 63 178 2.0 5.0 0.00 0.06 0.06 87 1018.6
20260902211410 63 170 2.0 7.0 0.00 0.06 0.06 87 1018.6
20260902210409 63 173 2.0 5.0 0.00 0.06 0.06 87 1018.7
20260902204410 63 190 2.0 5.0 0.00 0.06 0.06 87 1018.8
20260902203410 63 158 2.0 6.0 0.00 0.06 0.06 86 1018.9
20260902202409 63 160 2.0 5.0 0.00 0.06 0.06 86 1018.9
20260902201410 63 176 2.0 3.0 0.00 0.06 0.06 86 1019.0
20260902195409 63 174 1.0 3.0 0.00 0.06 0.06 86 1019.0
20260902194409 62 222 1.0 2.0 0.00 0.06 0.06 85 1019.1
20260902192409 62 187 1.0 2.0 0.00 0.06 0.06 85 1019.0
20260902191411 62 192 1.0 3.0 0.00 0.06 0.06 85 1019.2
20260902190409 62 219 0.0 1.0 0.00 0.06 0.06 85 1019.1
20260902185409 62 221 0.0 2.0 0.00 0.06 0.06 85 1019.1
20260902184409 63 221 1.0 3.0 0.00 0.06 0.06 83 1019.0
20260902183411 63 269 0.0 1.0 0.00 0.06 0.06 82 1018.9
20260902181410 65 269 0.0 1.0 0.00 0.06 0.06 78 1018.8
20260902175410 66 253 1.0 4.0 0.00 0.06 0.06 75 1018.8
20260902174410 67 316 3.0 6.0 0.00 0.06 0.06 73 1018.8
20260902171410 69 273 6.0 14.0 0.00 0.06 0.06 72 1018.8
20260902170409 69 253 2.0 6.0 0.00 0.06 0.06 74 1018.8
20260902165410 69 323 2.0 7.0 0.00 0.06 0.06 75 1018.7
20260902164410 69 298 2.0 4.0 0.00 0.06 0.06 76 1018.8
20260902163410 68 289 2.0 4.0 0.00 0.06 0.06 77 1018.9
20260902162409 68 271 2.0 4.0 0.00 0.06 0.06 77 1018.9
20260902161409 68 286 3.0 7.0 0.00 0.06 0.06 77 1018.8
20260902160409 69 277 3.0 6.0 0.00 0.06 0.06 76 1018.9
20260902154409 70 209 2.0 7.0 0.00 0.06 0.06 79 1019.0
20260902152409 69 184 2.0 4.0 0.00 0.06 0.06 84 1019.0
20260902151410 68 205 3.0 5.0 0.00 0.06 0.06 86 1019.0
20260902150409 67 162 2.0 5.0 0.00 0.06 0.06 87 1019.0
20260902145410 67 182 1.0 3.0 0.00 0.06 0.06 88 1019.2
20260902143409 67 236 1.0 6.0 0.00 0.06 0.06 85 1019.2
20260902142502 68 309 1.0 5.0 0.01 0.06 0.06 85 1019.1
20260902141401 66 153 1.0 3.0 0.02 0.06 0.06 92 1019.2